SCP
0 0 0 -0 -0 -0 -0 -0 -0 -0 0 0 0 0 0 0 0 0 0 0 0 0 0 0 0 0 0 0 0 0 0 0
0 0 0 0 0 -0 -0 -0 -0 -0 0 0 0 0 0 0 0 0 0 0 0 0 0 0 0 0 0 0 0 0 0 0
0 0 0 0 0 0 -0 -0 -0 -0 -0 0 0 0 0 0 0 0 0 0 0 0 0 0 0 0 0 0 0 0 0 0
0 0 0 0 0 0 0 0 -0 -0 -0 -0 0 0 0 0 0 0 0 0 0 0 0 0 0 0 0 0 0 0 0 0
0 0 0 0 0 0 0 0 -0 -0 -0 -0 -0 0 0 0 0 0 0 0 0 0 0 0 0 0 0 0 0 0 0 0
0 0 0 0 0 0 0 0 0 -0 -0 -0 -0 -0 0 0 0 0 0 0 0 0 0 0 0 0 0 0 0 0 0 0
0 0 0 0 0 0 0 0 0 0 -0 -0 -0 -0 -0 0 0 0 0 0 0 0 0 0 0 0 0 0 0 0 0 0
0 0 0 0 0 0 0 0 0 0 0 -0 -0 -0 -0 -0 0 0 0 0 0 0 0 0 0 0 0 0 0 0 0 0
0 0 0 0 0 0 0 0 0 0 0 0 -0 -0 -0 -0 -0 0 0 0 0 0 0 0 0 0 0 0 0 0 0 0
0 0 0 0 0 0 0 0 0 0 0 0 -0 -0 -0 -0 -0 -0 -0 0 0 0 0 0 0 0 0 0 0 0 0 0
0 0 0 0 0 0 0 0 0 0 0 0 0 -0 -0 -0 -0 -0 -0 -0 0 0 0 0 0 0 0 0 0 0 0 0
0 0 0 0 0 0 0 0 0 0 0 0 0 0 -0 -0 -0 -0 -0 -0 -0 -0 0 0 0 0 0 0 0 0 0 0
0 0 0 0 0 0 0 0 0 0 0 0 0 0 0 -0 -0 -0 -0 -0 -0 -0 -0 -0 0 0 0 0 0 0 0 0
0 0 0 0 0 0 0 0 0 0 0 0 0 0 0 -0 -0 -0 -0 -0 -0 -0 0 -0 -0 0 0 0 0 0 0 0
0 0 0 0 0 0 0 0 0 0 0 0 0 -0 -0 -0 0 -0 -0 -0 -0 -0 0 0 0 0 0 0 0 0 0 0
0 0 0 0 0 0 0 0 0 0 0 0 0 0 0 -0 -0 0 0 -0 -0 -0 -0 0 0 0 0 0 0 0 0 0
0 0 0 0 0 0 0 0 0 0 0 0 0 0 0 0 0 0 0 0 0 0 -0 0 0 0 0 0 0 0 0 0
0 0 0 0 0 0 0 0 0 0 0 0 0 0 0 0 0 0 0 0 0 0 0 0 0 0 0 0 0 0 0 0
0 0 0 0 0 0 0 0 0 0 0 0 0 0 0 0 0 0 0 0 0 0 0 0 0 0 0 0 0 0 0 0
0 0 0 0 0 0 0 0 0 0 0 0 0 0 0 0 0 0 0 0 0 0 0 0 0 0 0 0 0 0 0 0
Wind_Speed_500mb
35 41 47 51 55 57 60 66 73 76 72 70 70 62 55 48 45 37 30 47 43 68 78 78 68 77 86 83 85 86 91 92
38 39 42 45 50 54 58 61 65 72 75 73 72 71 64 57 50 42 28 26 26 37 56 69 66 75 75 74 82 79 84 84
36 39 42 44 46 49 52 57 61 63 67 71 72 70 72 69 63 49 38 23 16 15 32 40 45 46 53 63 67 69 74 78
32 38 43 42 42 46 47 51 55 61 64 65 69 73 74 72 71 63 51 38 22 12 3 12 28 28 32 40 45 50 55 58
34 38 42 42 42 42 44 45 48 52 58 64 67 68 71 72 71 70 62 52 43 28 19 9 15 23 26 30 35 37 41 42
36 39 42 42 42 42 41 43 46 47 50 53 56 63 69 69 69 69 65 61 55 46 32 29 15 7 19 26 32 36 38 41
40 42 47 46 42 41 41 41 44 45 46 48 50 52 55 65 71 69 67 66 61 58 53 49 32 14 10 22 28 34 38 42
44 46 49 48 45 41 40 40 41 43 45 46 47 48 50 51 52 63 70 68 66 65 64 59 51 30 17 14 24 29 34 38
41 52 52 49 46 40 38 39 41 43 44 46 47 48 48 49 51 47 51 59 66 64 61 58 54 44 30 15 15 22 28 33
52 58 54 49 46 42 38 38 39 43 46 49 54 52 49 49 50 51 49 42 45 52 56 55 51 49 40 30 17 8 20 26
55 52 54 52 47 45 43 42 41 41 44 47 52 57 57 50 50 50 51 50 46 35 40 45 47 45 43 38 31 21 12 8
58 61 57 53 50 46 44 43 44 46 47 48 50 53 58 64 55 51 51 49 49 46 36 31 36 39 39 37 36 32 28 21
56 54 50 51 51 47 45 44 46 50 53 54 54 55 56 60 65 62 53 50 47 48 46 37 27 28 32 34 31 31 32 29
41 44 46 44 46 44 44 45 49 52 56 60 61 60 58 57 58 59 55 48 45 43 46 47 41 33 26 27 30 30 31 32
42 41 40 37 40 43 45 49 51 55 58 62 65 63 57 51 48 50 48 45 41 39 40 43 45 45 35 32 29 27 26 34
29 26 29 33 39 43 48 51 54 58 60 58 55 53 52 47 41 40 40 39 36 36 37 43 43 42 43 42 38 36 34 31
24 26 31 35 41 46 50 53 57 55 52 49 46 43 42 43 40 34 36 36 34 34 33 36 40 44 43 42 41 40 39 36
30 33 36 40 44 51 54 51 47 46 43 41 38 35 35 36 40 43 31 34 31 31 35 35 38 39 41 41 42 39 38 36
34 36 39 42 42 46 46 43 39 37 35 33 33 33 32 34 37 40 43 42 37 31 32 34 37 37 38 36 39 42 36 36
36 38 36 36 33 38 38 36 33 30 29 29 30 33 36 37 38 40 43 45 46 45 41 38 37 37 34 35 35 38 40 37
Wind_Direction_500mb
343 348 355 357 359 1 5 7 6 5 8 6 5 357 349 351 343 327 280 256 232 232 247 237 243 247 244 243 244 243 244 242
333 339 343 349 353 359 1 4 7 6 8 9 9 9 2 359 359 352 334 290 267 232 230 233 242 242 239 241 241 242 245 244
320 328 334 338 345 351 357 2 5 5 7 7 10 12 13 8 6 4 358 356 316 257 232 220 223 232 239 240 242 242 241 240
305 314 323 330 336 341 346 353 357 360 4 5 7 11 15 15 13 12 8 9 7 6 131 206 201 209 225 240 242 241 241 240
302 305 313 319 325 331 337 343 349 353 357 359 4 6 11 14 16 18 20 19 27 30 47 88 146 190 205 219 232 236 237 236
296 302 305 311 315 320 327 334 340 347 350 354 358 1 3 7 13 16 19 25 23 26 31 40 65 136 209 222 223 225 231 235
295 299 301 303 304 309 316 325 331 336 342 347 352 356 1 1 2 7 13 16 21 23 22 21 17 21 245 235 233 235 236 235
297 297 293 295 298 301 307 316 325 330 334 339 344 349 353 357 360 360 2 6 12 15 15 14 11 3 340 282 249 242 242 242
303 304 294 288 291 293 298 309 317 324 328 331 336 339 343 346 350 355 358 358 359 3 9 12 10 3 2 355 270 249 242 240
306 299 296 280 283 285 290 299 309 317 320 323 327 331 333 335 338 341 344 348 352 352 355 0 5 6 360 4 8 290 239 239
305 297 294 280 276 278 286 294 303 311 315 317 320 322 325 328 329 330 330 331 332 338 339 345 349 358 2 359 2 10 2 249
295 293 290 277 273 272 279 289 299 308 312 313 315 316 318 320 322 321 320 318 317 316 319 324 330 338 347 354 353 353 352 350
290 289 289 276 269 269 275 286 297 304 307 311 313 314 314 313 314 316 315 311 307 304 304 305 305 312 320 330 338 340 336 336
290 286 284 271 262 265 275 285 294 300 305 308 311 312 312 311 310 311 312 311 307 302 297 297 298 299 294 295 305 316 326 325
293 285 275 262 261 268 280 290 296 301 304 306 308 310 311 312 310 309 310 310 309 307 301 295 295 298 297 295 291 292 296 310
291 278 266 263 269 279 287 294 298 301 304 306 307 309 311 313 315 310 307 308 309 303 303 303 297 297 307 307 304 301 295 297
281 276 275 278 284 289 292 296 300 303 305 306 309 311 312 313 315 313 310 310 308 300 297 296 295 300 305 304 303 304 305 287
279 280 282 286 290 291 295 298 301 302 304 306 309 311 313 316 316 318 317 314 312 309 306 302 301 305 302 299 304 301 292 277
280 284 287 290 291 291 296 300 301 301 302 305 308 312 314 316 315 317 320 322 323 322 318 315 313 313 309 304 297 289 285 281
285 287 289 293 292 293 299 300 299 300 302 305 307 310 311 311 311 312 314 315 318 318 319 317 314 314 312 308 302 294 291 286
Wind_Speed_850mb
35 41 47 51 55 57 60 66 73 76 72 70 70 62 55 48 45 37 30 47 43 68 78 78 68 77 86 83 85 86 91 92
38 39 42 45 50 54 58 61 65 72 75 73 72 71 64 57 50 42 28 26 26 37 56 69 66 75 75 74 82 79 84 84
36 39 42 44 46 49 52 57 61 63 67 71 72 70 72 69 63 49 38 23 16 15 32 40 45 46 53 63 67 69 74 78
32 38 43 42 42 46 47 51 55 61 64 65 69 73 74 72 71 63 51 38 22 12 3 12 28 28 32 40 45 50 55 58
34 38 42 42 42 42 44 45 48 52 58 64 67 68 71 72 71 70 62 52 43 28 19 9 15 23 26 30 35 37 41 42
36 39 42 42 42 42 41 43 46 47 50 53 56 63 69 69 69 69 65 61 55 46 32 29 15 7 19 26 32 36 38 41
40 42 47 46 42 41 41 41 44 45 46 48 50 52 55 65 71 69 67 66 61 58 53 49 32 14 10 22 28 34 38 42
44 46 49 48 45 41 40 40 41 43 45 46 47 48 50 51 52 63 70 68 66 65 64 59 51 30 17 14 24 29 34 38
41 52 52 49 46 40 38 39 41 43 44 46 47 48 48 49 51 47 51 59 66 64 61 58 54 44 30 15 15 22 28 33
52 58 54 49 46 42 38 38 39 43 46 49 54 52 49 49 50 51 49 42 45 52 56 55 51 49 40 30 17 8 20 26
55 52 54 52 47 45 43 42 41 41 44 47 52 57 57 50 50 50 51 50 46 35 40 45 47 45 43 38 31 21 12 8
58 61 57 53 50 46 44 43 44 46 47 48 50 53 58 64 55 51 51 49 49 46 36 31 36 39 39 37 36 32 28 21
56 54 50 51 51 47 45 44 46 50 53 54 54 55 56 60 65 62 53 50 47 48 46 37 27 28 32 34 31 31 32 29
41 44 46 44 46 44 44 45 49 52 56 60 61 60 58 57 58 59 55 48 45 43 46 47 41 33 26 27 30 30 31 32
42 41 40 37 40 43 45 49 51 55 58 62 65 63 57 51 48 50 48 45 41 39 40 43 45 45 35 32 29 27 26 34
29 26 29 33 39 43 48 51 54 58 60 58 55 53 52 47 41 40 40 39 36 36 37 43 43 42 43 42 38 36 34 31
24 26 31 35 41 46 50 53 57 55 52 49 46 43 42 43 40 34 36 36 34 34 33 36 40 44 43 42 41 40 39 36
30 33 36 40 44 51 54 51 47 46 43 41 38 35 35 36 40 43 31 34 31 31 35 35 38 39 41 41 42 39 38 36
34 36 39 42 42 46 46 43 39 37 35 33 33 33 32 34 37 40 43 42 37 31 32 34 37 37 38 36 39 42 36 36
36 38 36 36 33 38 38 36 33 30 29 29 30 33 36 37 38 40 43 45 46 45 41 38 37 37 34 35 35 38 40 37
Wind_Direction_850mb
343 348 355 357 359 1 5 7 6 5 8 6 5 357 349 351 343 327 280 256 232 232 247 237 243 247 244 243 244 243 244 242
333 339 343 349 353 359 1 4 7 6 8 9 9 9 2 359 359 352 334 290 267 232 230 233 242 242 239 241 241 242 245 244
320 328 334 338 345 351 357 2 5 5 7 7 10 12 13 8 6 4 358 356 316 257 232 220 223 232 239 240 242 242 241 240
305 314 323 330 336 341 346 353 357 360 4 5 7 11 15 15 13 12 8 9 7 6 131 206 201 209 225 240 242 241 241 240
302 305 313 319 325 331 337 343 349 353 357 359 4 6 11 14 16 18 20 19 27 30 47 88 146 190 205 219 232 236 237 236
296 302 305 311 315 320 327 334 340 347 350 354 358 1 3 7 13 16 19 25 23 26 31 40 65 136 209 222 223 225 231 235
295 299 301 303 304 309 316 325 331 336 342 347 352 356 1 1 2 7 13 16 21 23 22 21 17 21 245 235 233 235 236 235
297 297 293 295 298 301 307 316 325 330 334 339 344 349 353 357 360 360 2 6 12 15 15 14 11 3 340 282 249 242 242 242
303 304 294 288 291 293 298 309 317 324 328 331 336 339 343 346 350 355 358 358 359 3 9 12 10 3 2 355 270 249 242 240
306 299 296 280 283 285 290 299 309 317 320 323 327 331 333 335 338 341 344 348 352 352 355 0 5 6 360 4 8 290 239 239
305 297 294 280 276 278 286 294 303 311 315 317 320 322 325 328 329 330 330 331 332 338 339 345 349 358 2 359 2 10 2 249
295 293 290 277 273 272 279 289 299 308 312 313 315 316 318 320 322 321 320 318 317 316 319 324 330 338 347 354 353 353 352 350
290 289 289 276 269 269 275 286 297 304 307 311 313 314 314 313 314 316 315 311 307 304 304 305 305 312 320 330 338 340 336 336
290 286 284 271 262 265 275 285 294 300 305 308 311 312 312 311 310 311 312 311 307 302 297 297 298 299 294 295 305 316 326 325
293 285 275 262 261 268 280 290 296 301 304 306 308 310 311 312 310 309 310 310 309 307 301 295 295 298 297 295 291 292 296 310
291 278 266 263 269 279 287 294 298 301 304 306 307 309 311 313 315 310 307 308 309 303 303 303 297 297 307 307 304 301 295 297
281 276 275 278 284 289 292 296 300 303 305 306 309 311 312 313 315 313 310 310 308 300 297 296 295 300 305 304 303 304 305 287
279 280 282 286 290 291 295 298 301 302 304 306 309 311 313 316 316 318 317 314 312 309 306 302 301 305 302 299 304 301 292 277
280 284 287 290 291 291 296 300 301 301 302 305 308 312 314 316 315 317 320 322 323 322 318 315 313 313 309 304 297 289 285 281
285 287 289 293 292 293 299 300 299 300 302 305 307 310 311 311 311 312 314 315 318 318 319 317 314 314 312 308 302 294 291 286